Location: Huntsville
(41.2590°N, 111.7678°W)
Time: 21:15:29
(UTC+00:00)

Explorer 7 - Pass Details

Date: 15 June 2021
Orbit: 484 x 676 km, 50.3° (Epoch: 30 July)

Event Time Altitude Azimuth Distance (km) Brightness Sun altitude
Exits shadow 05:58:15 46° 215° (SW) 898 7.6 -22.2°
Maximum altitude 05:59:38 73° 144° (SE) 693 7.0 -22.3°
Drops below altitude 10° 06:04:21 10° 60° (ENE) 2,040 9.8 -22.6°
Sets 06:06:38 0° 58° (ENE) 2,925 10.7 -22.7°
